Weather History for Coldwater, MI

Change the Weather History Date:

Thursday, April 18, 2013

  Actual Average (KJYM) Record (KJYM)
Temperature  
Mean Temperature 58 °F -  
Max Temperature 73 °F 59 °F 86 °F (2002)
Min Temperature 44 °F 36 °F 19 °F (1983)
Degree Days  
Heating Degree Days 6    
Growing Degree Days 8 (Base 50)    
Moisture  
Dew Point 54 °F    
Average Humidity 87    
Maximum Humidity 94    
Minimum Humidity 65    
Precipitation  
Precipitation 0.00 in - - ()
Sea Level Pressure  
Sea Level Pressure 29.69 in    
Wind  
Wind Speed 13 mph (South)    
Max Wind Speed 22 mph    
Max Gust Speed 40 mph    
Visibility 8 miles    
Events Rain    
Averages and records for this station are not official NWS values.
T = Trace of Precipitation, MM = Missing Value Source: NWS Daily Summary

Daily Weather History Graph

Daily Weather History Graph

Search for Another Location

Airport:

Trip Planner

Search our weather history database for the weather conditions in past years. The results will help you decide how hot, cold, wet, or windy it might be!

Date:

Astronomy

Apr. 18, 2013 Rise Set
Actual Time 6:54 AM EDT 8:24 PM EDT
Civil Twilight 6:25 AM EDT 8:54 PM EDT
Nautical Twilight 5:50 AM EDT 9:29 PM EDT
Astronomical Twilight 5:12 AM EDT 10:07 PM EDT
Moon 1:04 PM EDT (4/18) 2:40 AM EDT (4/18)
Length of Visible Light 14h 28m
Length of Day
13h 30m
First Quarter, 51% of the Moon is Illuminated
Apr 18
First Quarter
Apr 25
Full
May 2
Last Quarter
May 9
New
May 18
First Quarter

Hourly Weather History & Observations

Time (EDT) Temp. Windchill Dew Point Humidity Pressure Visibility Wind Dir Wind Speed Gust Speed Precip Events Conditions
12:15 AM 45.3 °F 39.7 °F 42.3 °F 89% 29.95 in 5.0 mi ESE 11.5 mph - N/A Rain Light Rain
12:35 AM 44.8 °F 39.0 °F 41.9 °F 90% 29.94 in 5.0 mi SE 11.5 mph - N/A Rain Light Rain
12:55 AM 45.0 °F 38.5 °F 41.9 °F 89% 29.92 in 10.0 mi ESE 13.8 mph 19.6 mph N/A   Overcast
1:15 AM 45.1 °F 40.3 °F 41.9 °F 88% 29.91 in 10.0 mi ESE 9.2 mph - N/A   Overcast
1:35 AM 45.1 °F 39.9 °F 41.9 °F 88% 29.90 in 10.0 mi ESE 10.4 mph - N/A   Overcast
1:55 AM 45.5 °F 39.2 °F 42.3 °F 88% 29.88 in 10.0 mi ESE 13.8 mph - N/A   Overcast
2:16 AM 45.7 °F 38.8 °F 42.4 °F 88% 29.86 in 7.0 mi ESE 16.1 mph - N/A   Overcast
2:35 AM 46.2 °F 39.5 °F 43.0 °F 88% 29.84 in 7.0 mi SE 16.1 mph 21.9 mph N/A   Overcast
2:55 AM 46.6 °F - 43.7 °F 90% 29.82 in 7.0 mi SE 15.0 mph - N/A   Mostly Cloudy
3:15 AM 47.1 °F - 44.1 °F 89% 29.80 in 7.0 mi SE 16.1 mph 20.7 mph N/A   Scattered Clouds
3:35 AM 47.8 °F - 45.0 °F 90% 29.79 in 7.0 mi SE 16.1 mph 24.2 mph N/A   Mostly Cloudy
3:55 AM 48.2 °F - 45.3 °F 90% 29.79 in 7.0 mi SE 15.0 mph 23.0 mph N/A   Mostly Cloudy
4:15 AM 48.7 °F - 45.9 °F 90% 29.77 in 5.0 mi SE 13.8 mph - N/A   Mostly Cloudy
4:35 AM 49.1 °F - 46.4 °F 90% 29.77 in 5.0 mi SE 15.0 mph 23.0 mph N/A   Scattered Clouds
4:55 AM 50.0 °F - 47.3 °F 90% 29.76 in 5.0 mi SE 15.0 mph 23.0 mph N/A   Clear
5:15 AM 50.5 °F - 47.8 °F 90% 29.76 in 5.0 mi SSE 15.0 mph 23.0 mph N/A   Clear
5:35 AM 50.5 °F - 48.2 °F 92% 29.75 in 5.0 mi SSE 15.0 mph - N/A   Clear
5:55 AM 51.3 °F - 48.7 °F 91% 29.73 in 5.0 mi SSE 13.8 mph 18.4 mph N/A   Clear
6:15 AM 52.0 °F - 49.3 °F 90% 29.73 in 5.0 mi SSE 12.7 mph 21.9 mph N/A   Clear
6:35 AM 52.2 °F - 49.6 °F 91% 29.73 in 5.0 mi South 10.4 mph 17.3 mph N/A   Scattered Clouds
6:55 AM 52.9 °F - 50.2 °F 91% 29.72 in 5.0 mi South 8.1 mph - N/A   Clear
7:15 AM 53.8 °F - 51.1 °F 91% 29.72 in 5.0 mi SSE 10.4 mph - N/A   Scattered Clouds
7:35 AM 54.5 °F - 51.8 °F 91% 29.71 in 5.0 mi SSE 8.1 mph - N/A   Scattered Clouds
7:55 AM 54.7 °F - 52.0 °F 91% 29.70 in 5.0 mi SSE 11.5 mph 18.4 mph N/A   Clear
8:15 AM 56.5 °F - 53.6 °F 90% 29.70 in 5.0 mi SSE 12.7 mph 20.7 mph N/A   Clear
8:35 AM 58.8 °F - 55.0 °F 87% 29.70 in 7.0 mi South 12.7 mph 19.6 mph N/A   Clear
8:55 AM 60.4 °F - 56.1 °F 86% 29.68 in 10.0 mi South 15.0 mph 20.7 mph N/A   Scattered Clouds
9:15 AM 63.0 °F - 57.6 °F 82% 29.66 in 10.0 mi SSE 16.1 mph 23.0 mph N/A   Scattered Clouds
9:36 AM 64.6 °F - 58.5 °F 80% 29.65 in 10.0 mi South 15.0 mph 23.0 mph N/A   Scattered Clouds
9:55 AM 66.0 °F - 59.4 °F 79% 29.64 in 10.0 mi South 15.0 mph 23.0 mph N/A   Scattered Clouds
10:15 AM 67.1 °F - 59.9 °F 78% 29.64 in 10.0 mi South 12.7 mph 28.8 mph N/A   Scattered Clouds
10:36 AM 67.6 °F - 60.1 °F 77% 29.64 in 10.0 mi South 11.5 mph 23.0 mph N/A   Mostly Cloudy
10:55 AM 69.1 °F - 61.2 °F 76% 29.64 in 10.0 mi South 11.5 mph 19.6 mph N/A   Overcast
11:15 AM 71.6 °F - 61.9 °F 71% 29.63 in 10.0 mi South 17.3 mph 34.5 mph N/A   Overcast
11:35 AM 72.5 °F - 61.9 °F 69% 29.61 in 10.0 mi SSW 18.4 mph 29.9 mph N/A   Overcast
11:55 AM 73.4 °F - 61.9 °F 67% 29.60 in 10.0 mi South 15.0 mph 29.9 mph N/A   Overcast
12:15 PM 73.0 °F - 60.8 °F 65% 29.60 in 10.0 mi SSW 17.3 mph 35.7 mph N/A   Overcast
12:35 PM 69.1 °F - 62.6 °F 80% 29.61 in 2.0 mi SW 21.9 mph 40.3 mph N/A Rain Heavy Rain
12:55 PM 64.4 °F - 57.9 °F 79% 29.63 in 10.0 mi SW 13.8 mph 21.9 mph N/A Rain Light Rain
1:15 PM 66.2 °F - 60.4 °F 82% 29.63 in 10.0 mi SW 17.3 mph 26.5 mph N/A   Overcast
1:35 PM 64.6 °F - 59.2 °F 83% 29.63 in 10.0 mi SSW 13.8 mph 26.5 mph N/A Rain Light Rain
1:55 PM 63.9 °F - 59.2 °F 85% 29.65 in 10.0 mi SW 18.4 mph 26.5 mph N/A Rain Light Rain
2:15 PM 63.7 °F - 58.6 °F 84% 29.63 in 10.0 mi SW 13.8 mph 25.3 mph N/A   Overcast
2:35 PM 63.9 °F - 58.1 °F 81% 29.63 in 10.0 mi SSW 13.8 mph 24.2 mph N/A   Mostly Cloudy
2:55 PM 63.7 °F - 58.1 °F 82% 29.65 in 10.0 mi SW 12.7 mph - N/A   Mostly Cloudy
3:16 PM 63.0 °F - 57.7 °F 83% 29.64 in 10.0 mi WSW 8.1 mph - N/A Rain Rain
3:35 PM 61.7 °F - 58.1 °F 88% 29.66 in 7.0 mi SW 12.7 mph - N/A Rain Rain
3:55 PM 61.0 °F - 58.1 °F 90% 29.66 in 5.0 mi SW 15.0 mph 19.6 mph N/A Rain Heavy Rain
4:35 PM 60.4 °F - 58.1 °F 92% 29.63 in 7.0 mi SW 8.1 mph - N/A Rain Light Rain
4:55 PM 60.8 °F - 58.1 °F 91% 29.65 in 10.0 mi SSW 10.4 mph 16.1 mph N/A Rain Light Rain
5:15 PM 60.6 °F - 57.9 °F 91% 29.66 in 10.0 mi SSW 15.0 mph 19.6 mph N/A Rain Light Rain
5:35 PM 60.8 °F - 58.1 °F 91% 29.65 in 7.0 mi South 9.2 mph 17.3 mph N/A Rain Light Rain
5:56 PM 60.8 °F - 57.7 °F 90% 29.64 in 10.0 mi SSW 10.4 mph 16.1 mph N/A Rain Light Rain
6:15 PM 60.4 °F - 57.6 °F 90% 29.64 in 10.0 mi SSW 9.2 mph 18.4 mph N/A Rain Light Rain
6:35 PM 60.1 °F - 57.2 °F 90% 29.64 in 10.0 mi SSW 12.7 mph 17.3 mph N/A Rain Rain
6:55 PM 59.9 °F - 57.2 °F 91% 29.64 in 10.0 mi SSW 10.4 mph - N/A Rain Light Rain
7:15 PM 59.5 °F - 57.2 °F 92% 29.66 in 10.0 mi SSW 10.4 mph 16.1 mph N/A Rain Light Rain
7:35 PM 59.4 °F - 57.2 °F 93% 29.66 in 7.0 mi South 10.4 mph - N/A Rain Rain
7:55 PM 59.0 °F - 56.7 °F 92% 29.66 in 10.0 mi SSW 10.4 mph 16.1 mph N/A Rain Light Rain
8:15 PM 59.0 °F - 56.5 °F 91% 29.64 in 10.0 mi SSW 6.9 mph - N/A Rain Light Rain
8:35 PM 59.0 °F - 56.7 °F 92% 29.63 in 10.0 mi South 6.9 mph - N/A Rain Light Rain
8:55 PM 58.5 °F - 56.3 °F 93% 29.63 in 10.0 mi SSE 10.4 mph - N/A Rain Light Rain
9:15 PM 58.5 °F - 56.5 °F 93% 29.62 in 10.0 mi SSE 11.5 mph - N/A Rain Rain
9:35 PM 58.3 °F - 56.3 °F 93% 29.61 in 7.0 mi SSE 12.7 mph - N/A Rain Rain
9:55 PM 58.1 °F - 56.3 °F 94% 29.62 in 10.0 mi South 11.5 mph 18.4 mph N/A Rain Rain
10:15 PM 58.1 °F - 56.3 °F 94% 29.62 in 7.0 mi SSE 10.4 mph - N/A Rain Rain
10:35 PM 58.1 °F - 55.9 °F 93% 29.61 in 10.0 mi South 11.5 mph 17.3 mph N/A Rain Rain
10:55 PM 57.6 °F - 55.6 °F 93% 29.58 in 10.0 mi SE 10.4 mph 17.3 mph N/A Rain Light Rain
11:35 PM 57.4 °F - 55.4 °F 93% 29.56 in 7.0 mi SSE 11.5 mph 16.1 mph N/A Rain Light Rain
11:55 PM 57.7 °F - 55.8 °F 93% 29.54 in 10.0 mi SSE 12.7 mph 18.4 mph N/A Rain Light Rain